Regional Weather Roundup
Issued by NWS

Home | Current Version | Previous Version | Graphics & Text | Print | Product List | Glossary Off
Versions: 1 2 3 4 5 6 7 8 9 10 11 12 13 14 15 16 17 18 19 20 21 22 23 24 25 26 27 28 29 30 31 32 33 34 35 36 37 38 39 40 41 42 43 44 45 46 47 48 49 50

000
ASUS45 KPSR 271110
RWRAZ

ARIZONA REGIONAL HOURLY WEATHER ROUNDUP
NATIONAL WEATHER SERVICE PHOENIX AZ
400 AM MST WED AUG 27 2014

NOTE: FAIR INDICATES FEW OR NO CLOUDS BELOW 12,000 FEET WITH NO
SIGNIFICANT WEATHER AND/OR OBSTRUCTIONS TO VISIBILITY.

AZZ001>003-036-271200-
NORTHWEST ARIZONA

CITY           SKY/WX    TMP DP  RH WIND       PRES   REMARKS
BULLHEAD CITY  CLEAR     82  63  51 E5        29.92S
KINGMAN        CLEAR     67  57  70 SE9       30.10R
$$

AZZ004>008-015-016-018-271200-
NORTH CENTRAL ARIZONA

CITY           SKY/WX    TMP DP  RH WIND       PRES   REMARKS
GRAND CANYON     N/A    N/A N/A N/A MISG        N/A
WILLIAMS       PTCLDY    50  48  93 CALM      30.39R
PRESCOTT       RAIN      61  57  87 CALM      30.24F FOG
FLAGSTAFF      HVY RAIN  51  49  92 W8        30.36R FOG
PAYSON         CLOUDY    63  52  67 NE7       30.26R
PAGE           MOCLDY    59  51  75 CALM      30.24R
$$

AZZ009>014-017-271200-
NORTHEAST ARIZONA

CITY           SKY/WX    TMP DP  RH WIND       PRES   REMARKS
WINSLOW        CLOUDY    58  56  93 E3        30.25R
SAINT JOHNS    CLEAR     52  52 100 SW3       30.28R
SHOW LOW       CLEAR     54  48  82 S9        30.33R
$$

AZZ023-271200-
GREATER PHOENIX AREA

CITY           SKY/WX    TMP DP  RH WIND       PRES   REMARKS
PHOENIX        PTCLDY    84  64  50 SE5       29.96R
BUCKEYE          N/A     81  66  61 E9        29.96R
LUKE AFB       NOT AVBL
DEER VALLEY    MOCLDY    81  59  47 N3        29.99R
SCOTTSDALE     CLEAR     82  60  47 CALM      30.00R
MESA-GATEWAY   CLEAR     79  63  57 E5        30.00R
$$

AZZ027-028-271200-
SOUTHWEST MARICOPA COUNTY AND PINAL COUNTY

CITY           SKY/WX    TMP DP  RH WIND       PRES   REMARKS
CASA GRANDE    CLEAR     79  66  65 CALM      29.99S
$$

AZZ503-504-507>509-271200-
SOUTHEAST ARIZONA

CITY           SKY/WX    TMP DP  RH WIND       PRES   REMARKS
TUCSON         CLEAR     74  66  76 SE7       30.08S
DAVIS-MONTHAN  CLEAR     72  65  78 SE5       30.07R
NOGALES        MOCLDY    66  63  90 E3        30.15S
SIERRA VISTA   PTCLDY    64  61  88 W6        30.20F
DOUGLAS        MOCLDY    65  63  93 N6        30.17S
SAFFORD        CLEAR     66  64  93 NW3       30.10S
$$

AZZ020-021-025-026-031-271200-
SOUTHWEST ARIZONA

CITY           SKY/WX    TMP DP  RH WIND       PRES   REMARKS
YUMA           CLEAR     84  69  60 S6        29.90S
$$

CAZ031-033-041-043-047-048-061-271200-
SOUTHERN CALIFORNIA

CITY           SKY/WX    TMP DP  RH WIND       PRES   REMARKS
DOWNTOWN L.A.  CLEAR     67  62  84 CALM      29.99R
L.A. AIRPORT   CLEAR     68  63  84 CALM      30.00S
SAN DIEGO      PTCLDY    70  63  78 CALM      30.01S
BURBANK        CLEAR     69  47  45 CALM      30.00S
ONTARIO        CLEAR     69  57  65 CALM      30.01S
RIVERSIDE      CLEAR     69  58  67 CALM      30.01S
PALM SPRINGS   CLEAR     82  52  35 S3        29.92S
EL CENTRO NAS  CLEAR     83  43  24 W10       29.88R
IMPERIAL       CLEAR     80  50  34 W10       29.88R
BLYTHE         CLEAR     85  52  32 SW5       29.89S
NEEDLES        CLEAR     83  61  47 W6        29.92S
$$

NVZ020-UTZ003-271200-
SOUTHERN NEVADA-UTAH

CITY           SKY/WX    TMP DP  RH WIND       PRES   REMARKS
LAS VEGAS      CLEAR     76  46  34 CALM      29.99S
SALT LAKE CITY CLOUDY    60  55  83 W3        30.19R
$$

NMZ009-TXZ055-271200-
NEW MEXICO-WEST TEXAS

CITY           SKY/WX    TMP DP  RH WIND       PRES   REMARKS
ALBUQUERQUE    CLOUDY    61  57  87 NW6       30.28R
EL PASO        MOCLDY    70  65  84 CALM      30.14S
$$


........................KEY........................
SKY/WX - SKY CONDITION/WEATHER
TMP    - TEMPERATURE IN FAHRENHEIT
DP     - DEW POINT IN FAHRENHEIT
RH     - RELATIVE HUMIDITY IN PERCENT
WIND   - DIRECTION AND SPEED IN MILES PER HOUR (MPH)
VRB    - VARIABLE WIND DIRECTION
PRES   - MEAN SEA LEVEL PRESSURE IN INCHES OF MERCURY
         F - FALLING PRESSURE   R - RISING PRESSURE
         S - STEADY PRESSURE
VSB    - VISIBILITY IN MILES
HX     - HEAT INDEX IN FAHRENHEIT
WCI    - WIND CHILL INDEX IN FAHRENHEIT
TC     - TEMPERATURE IN CELSIUS WHICH IS ALSO KNOWN AS
         TEMPERATURE IN CENTIGRADE
AFB    - AIR FORCE BASE
         LUKE AFB IS LUKE AIR FORCE BASE
         DAVIS-MONTHAN IS DAVIS-MONTHAN AIR FORCE BASE
NAS    - NAVAL AIR STATION
         EL CENTRO NAS IS EL CENTRO NAVAL AIR STATION
N/A    - NOT AVAILABLE


USA.gov is the U.S. government's official web portal to all federal, state and local government web resources and services.